EN

Hourly Weather Orehnovo

Today, 18 May, Tuesday

Time Temperature Precipitation Wind Pressure Humidity
00:00 +16°C° 0.4 mm 1 mps 737 mmHg 96%
01:00 +15°C° 0.4 mm 2 mps 737 mmHg 96%
02:00 +15°C° 0.4 mm 2 mps 737 mmHg 97%
03:00 +15°C° 0 mm 2 mps 737 mmHg 97%
04:00 +16°C° 0 mm 3 mps 737 mmHg 97%
05:00 +16°C° 0 mm 3 mps 737 mmHg 96%
06:00 +17°C° 0.2 mm 3 mps 737 mmHg 95%
07:00 +18°C° 0.2 mm 3 mps 737 mmHg 93%
08:00 +19°C° 0.2 mm 3 mps 737 mmHg 92%
09:00 +20°C° 0.2 mm 4 mps 737 mmHg 85%
10:00 +21°C° 0.2 mm 4 mps 737 mmHg 78%
11:00 +23°C° 0.2 mm 5 mps 737 mmHg 71%
12:00 +22°C° 0.4 mm 5 mps 737 mmHg 74%
13:00 +22°C° 0.4 mm 4 mps 737 mmHg 76%
14:00 +21°C° 0.4 mm 4 mps 737 mmHg 78%
15:00 +20°C° 1.6 mm 4 mps 737 mmHg 82%
16:00 +19°C° 1.6 mm 3 mps 737 mmHg 87%
17:00 +17°C° 1.6 mm 3 mps 737 mmHg 92%
18:00 +17°C° 0.8 mm 3 mps 737 mmHg 91%
19:00 +17°C° 0.8 mm 3 mps 737 mmHg 91%
20:00 +17°C° 0.8 mm 4 mps 737 mmHg 90%
21:00 +17°C° 0.1 mm 3 mps 736 mmHg 92%
22:00 +16°C° 0.1 mm 3 mps 736 mmHg 93%
23:00 +15°C° 0.1 mm 2 mps 736 mmHg 95%

Tomorrow, 19 May, Wednesday

Time Temperature Precipitation Wind Pressure Humidity
00:00 +15°C° 0 mm 2 mps 736 mmHg 95%
01:00 +14°C° 0 mm 3 mps 736 mmHg 96%
02:00 +13°C° 0 mm 3 mps 736 mmHg 97%
03:00 +13°C° 0.1 mm 3 mps 736 mmHg 97%
04:00 +13°C° 0.1 mm 3 mps 736 mmHg 97%
05:00 +13°C° 0.1 mm 3 mps 736 mmHg 97%
06:00 +14°C° 0 mm 4 mps 737 mmHg 94%
07:00 +15°C° 0 mm 4 mps 737 mmHg 90%
08:00 +17°C° 0 mm 4 mps 737 mmHg 87%
09:00 +18°C° 0.2 mm 4 mps 738 mmHg 82%
10:00 +19°C° 0.2 mm 5 mps 738 mmHg 77%
11:00 +20°C° 0.2 mm 5 mps 738 mmHg 72%
12:00 +20°C° 0.3 mm 4 mps 738 mmHg 72%
13:00 +20°C° 0.3 mm 4 mps 738 mmHg 71%
14:00 +20°C° 0.3 mm 4 mps 738 mmHg 70%
15:00 +20°C° 0.4 mm 3 mps 738 mmHg 73%
16:00 +20°C° 0.4 mm 3 mps 738 mmHg 77%
17:00 +19°C° 0.4 mm 3 mps 738 mmHg 80%
18:00 +18°C° 0.3 mm 2 mps 739 mmHg 85%
19:00 +16°C° 0.3 mm 2 mps 739 mmHg 90%
20:00 +14°C° 0.3 mm 2 mps 739 mmHg 95%
21:00 +14°C° 0 mm 2 mps 740 mmHg 96%
22:00 +13°C° 0 mm 2 mps 740 mmHg 97%
23:00 +12°C° 0 mm 2 mps 740 mmHg 98%

Day after tomorrow, 20 May, Thursday

Time Temperature Precipitation Wind Pressure Humidity
00:00 +10°C° 0 mm 2 mps 740 mmHg 98%
01:00 +10°C° 0 mm 2 mps 740 mmHg 97%
02:00 +10°C° 0 mm 2 mps 740 mmHg 97%
03:00 +10°C° 0.1 mm 3 mps 740 mmHg 97%
04:00 +10°C° 0.1 mm 3 mps 740 mmHg 97%
05:00 +10°C° 0.1 mm 3 mps 740 mmHg 96%
06:00 +10°C° 0.1 mm 3 mps 740 mmHg 96%
07:00 +10°C° 0.1 mm 3 mps 740 mmHg 96%
08:00 +11°C° 0.1 mm 4 mps 740 mmHg 96%
09:00 +11°C° 0.1 mm 4 mps 739 mmHg 96%
10:00 +11°C° 0.1 mm 4 mps 739 mmHg 95%
11:00 +10°C° 0.1 mm 5 mps 739 mmHg 95%
12:00 +10°C° 0.1 mm 5 mps 739 mmHg 94%
13:00 +10°C° 0.1 mm 5 mps 738 mmHg 93%
14:00 +9°C° 0.1 mm 6 mps 738 mmHg 92%
15:00 +9°C° 0.4 mm 6 mps 738 mmHg 93%
16:00 +9°C° 0.4 mm 6 mps 737 mmHg 94%
17:00 +9°C° 0.4 mm 6 mps 737 mmHg 95%
18:00 +9°C° 1.8 mm 5 mps 736 mmHg 95%
19:00 +9°C° 1.8 mm 5 mps 736 mmHg 96%
20:00 +9°C° 1.8 mm 5 mps 735 mmHg 97%
21:00 +10°C° 3.5 mm 4 mps 735 mmHg 97%
22:00 +10°C° 3.5 mm 4 mps 735 mmHg 97%
23:00 +10°C° 3.5 mm 3 mps 735 mmHg 98%

21 May, Friday

Time Temperature Precipitation Wind Pressure Humidity
00:00 +10°C° 0.1 mm 3 mps 735 mmHg 98%
01:00 +9°C° 0.1 mm 3 mps 735 mmHg 98%
02:00 +9°C° 0.1 mm 3 mps 735 mmHg 98%
03:00 +9°C° 0.1 mm 3 mps 735 mmHg 98%
04:00 +9°C° 0.1 mm 3 mps 735 mmHg 98%
05:00 +8°C° 0.1 mm 4 mps 735 mmHg 97%
06:00 +8°C° 0.2 mm 4 mps 735 mmHg 97%
07:00 +8°C° 0.2 mm 4 mps 735 mmHg 97%
08:00 +8°C° 0.2 mm 4 mps 735 mmHg 97%
09:00 +7°C° 0.2 mm 5 mps 736 mmHg 97%
10:00 +7°C° 0.2 mm 5 mps 736 mmHg 96%
11:00 +7°C° 0.2 mm 5 mps 737 mmHg 96%
12:00 +7°C° 0.4 mm 5 mps 738 mmHg 95%
13:00 +7°C° 0.4 mm 5 mps 738 mmHg 95%
14:00 +7°C° 0.4 mm 5 mps 739 mmHg 95%
15:00 +8°C° 0.2 mm 5 mps 740 mmHg 94%
16:00 +8°C° 0.2 mm 4 mps 740 mmHg 93%
17:00 +8°C° 0.2 mm 4 mps 741 mmHg 92%
18:00 +9°C° 0 mm 3 mps 741 mmHg 91%
19:00 +9°C° 0 mm 3 mps 742 mmHg 90%
20:00 +9°C° 0 mm 2 mps 742 mmHg 89%
21:00 +8°C° 0 mm 2 mps 742 mmHg 90%
22:00 +7°C° 0 mm 3 mps 743 mmHg 91%
23:00 +7°C° 0 mm 3 mps 743 mmHg 92%

22 May, Saturday

Time Temperature Precipitation Wind Pressure Humidity
00:00 +7°C° 0 mm 3 mps 743 mmHg 93%
01:00 +7°C° 0 mm 3 mps 744 mmHg 94%
02:00 +5°C° 0 mm 3 mps 744 mmHg 95%
03:00 +5°C° 0 mm 3 mps 744 mmHg 95%
04:00 +5°C° 0 mm 3 mps 744 mmHg 94%
05:00 +5°C° 0 mm 3 mps 744 mmHg 93%
06:00 +7°C° 0 mm 3 mps 745 mmHg 83%
07:00 +7°C° 0 mm 4 mps 745 mmHg 73%
08:00 +10°C° 0 mm 4 mps 745 mmHg 63%
09:00 +11°C° 0 mm 4 mps 745 mmHg 57%
10:00 +12°C° 0 mm 4 mps 745 mmHg 51%
11:00 +14°C° 0 mm 4 mps 745 mmHg 44%
12:00 +14°C° 0 mm 4 mps 745 mmHg 46%
13:00 +14°C° 0 mm 4 mps 745 mmHg 48%
14:00 +14°C° 0 mm 3 mps 746 mmHg 50%
15:00 +14°C° 0 mm 3 mps 746 mmHg 53%
16:00 +14°C° 0 mm 3 mps 746 mmHg 56%
17:00 +15°C° 0 mm 2 mps 746 mmHg 58%
18:00 +14°C° 0 mm 2 mps 746 mmHg 65%
19:00 +12°C° 0 mm 2 mps 746 mmHg 72%
20:00 +10°C° 0 mm 2 mps 746 mmHg 79%
21:00 +9°C° 0 mm 2 mps 746 mmHg 82%
22:00 +8°C° 0 mm 2 mps 747 mmHg 85%
23:00 +7°C° 0 mm 2 mps 747 mmHg 88%

23 May, Sunday

Time Temperature Precipitation Wind Pressure Humidity
00:00 +7°C° 0 mm 2 mps 747 mmHg 89%
01:00 +7°C° 0 mm 2 mps 747 mmHg 90%
02:00 +7°C° 0 mm 2 mps 748 mmHg 91%
03:00 +7°C° 0 mm 2 mps 748 mmHg 90%
04:00 +8°C° 0 mm 2 mps 748 mmHg 89%
05:00 +8°C° 0 mm 2 mps 748 mmHg 88%
06:00 +10°C° 0 mm 2 mps 748 mmHg 81%
07:00 +12°C° 0 mm 3 mps 748 mmHg 74%
08:00 +14°C° 0 mm 3 mps 748 mmHg 66%
09:00 +16°C° 0 mm 3 mps 748 mmHg 62%
10:00 +17°C° 0 mm 4 mps 748 mmHg 59%
11:00 +18°C° 0 mm 4 mps 748 mmHg 55%
12:00 +18°C° 0 mm 4 mps 748 mmHg 53%
13:00 +18°C° 0 mm 4 mps 748 mmHg 52%
14:00 +19°C° 0 mm 4 mps 747 mmHg 50%
15:00 +19°C° 0 mm 4 mps 747 mmHg 53%
16:00 +18°C° 0 mm 3 mps 747 mmHg 55%
17:00 +18°C° 0 mm 3 mps 747 mmHg 58%
18:00 +17°C° 0 mm 3 mps 747 mmHg 66%
19:00 +15°C° 0 mm 2 mps 747 mmHg 74%
20:00 +13°C° 0 mm 2 mps 747 mmHg 82%
21:00 +12°C° 0 mm 2 mps 747 mmHg 85%
22:00 +12°C° 0 mm 2 mps 747 mmHg 87%
23:00 +10°C° 0 mm 2 mps 747 mmHg 89%
Show more

We Need Your Consent

Meteoprog and our Service Providers may store and access personal data such as cookies, device identifiers or other similar technologies on your device and process such data to personalise content and ads, as well as provide social media features and to analyse the traffic.

  • Store and/or access information on your device

    Cookies, device identifiers or other information can be stored or accessed on your device for the purposes indicated above.

  • Personalised ads and content, ad and content measurement, audience insights, and products development

    Ads and content can be personalised based on a profile. More data can be added to better personalise ads and content. Ad and content performance can be measured. Insights about the audience who saw the ads and content can be derived. Such data can be used to develop or improve user’s experience, systems and software.

By clicking ‘I Agree’ you will allow the use of indicated cookies, device identifiers, web beacons or other similar technologies. Your settings can be changed in the browser on your device.

For certain purposes, legitimate interests may be relied on, rather than consent. You can read more about this in our Privacy and Cookie Policy.